Showing default

IRNSS 1I, 43286

Orbit data source: Space-Track

IRNSS 1I, 43286 is a payload satellite owned by ISRO (IN) in GEO that was launched on Wed, 11 Apr 2018 UTC via a PSLV-XL launch vehicle from the Sirharikota (SRI). Payload-class satellites include a variety of spacecraft equipped with specific instruments for various scientific and technological missions. These include communications satellites like Starlink; space stations such as the ISS; scientific satellites like the Hubble; Earth observation satellites from companies like Planet Labs, Umbra, and HawkEye 360; GPS; miniature CubeSats for education and research; and military/defense satellites.

Not visible in the next 10 days
Identifier
43286, 2018-035A
Orbit
GEO
Country
Flag of ININ / IND
Related business
Manufacturer
ISRO SAC/Banga
Mission
Operational Civil Navigation
Bus & Motor
I1K, ISRO LAM
Mass
1,425 kg wet, 598 kg dry
Launch date (UTC)
2018-04-11 (8 years ago)
Launch vehicle
PSLV-XL
Launch site
Sirharikota (SRI)
Object type
Payload
Rocket body
Debris
Shape & HBR
Box + 2 Pan, 5.0 m
Radar Cross Section
6.961 m², Large (>1 m²)

Expand to show TLE details & history
Last TLE update: 2 days ago

TLE from 2 days ago
0 IRNSS 1I
1 43286U 18035A   26125.91689917  .00000090  00000-0  00000-0 0  9995
2 43286  29.0788  74.8480 0017662 186.9011 347.2974  1.00278576 29652
Epoch: 2026-05-05T22:00Z
TLE epoch observation values (Epoch: 2026-05-05T22:00:20.088Z)
Latitude
2.79348°
Longitude
55.89158°
Altitude
35,711.223 km
Speed
3.08 km/s
True Right ascension
16h 39m 02s
True Declination
2° 47' 26"
Sunlit
Object was in daylight at epoch
Visualization orbit readout
Latitude
Unknown
Longitude
Unknown
Altitude
Unknown
Speed
Unknown
Apparent Right ascension
Unknown
Apparent Declination
Unknown
Sunlit
N/A
Visualization observer readout
Local Sidereal Time
11:02:26
Azimuth
Unknown
Elevation
Unknown
Doppler factor
Unknown
Orbital elements
Apogee altitude
35,859.861 km
Perigee altitude
35,710.922 km
Semi-major axis
42,163.529 km
Eccentricity
0.00177
Inclination
29.0788°
RAAN
74.848°
Arg. of periapsis
186.9011°
True anomaly
347.2528°
Mean anomaly
347.2974°
Eccentric anomaly
347.27511°
Mean motion
0.25069 °/min
Orbital period
1,436.03 mins
BSTAR
0
Loading maneuver chart data...
Computing Atmospheric mass density...
Loading historical data...
Loading historical data...
Loading historical data...
Loading historical data...
Loading historical data...
Loading historical data...
Loading historical data...
Other satellites on launch #35 in the year 2018 (2018-04-11 UTC)

Documentation

Showing up to 5 results
|